SILO RECORD LiDAR
| Silo ID | Silo Type | Reliability | Strength | Temperature | Humidity | Depth | Height | Volume | Weight | Flag | Internal IP | Time | VMS DATA | 3D 좌표계 |
|---|---|---|---|---|---|---|---|---|---|---|---|---|---|---|
| WJWJR01 | 1 | 3372 % | 1007 | 80 °C | 100 % | 7529 mm | 5526 mm | 6684 ㎥ | 7427 t | 15 | 2026-07-24 11:59:01.000 | |||
| WJWJR01 | 1 | 2840 % | 5371 | 80 °C | 100 % | 4045 mm | 8418 mm | 4939 ㎥ | 8343 t | 15 | 2026-07-24 11:58:54.000 | |||
| WJWJR01 | 1 | 1962 % | 2352 | 80 °C | 100 % | 2026 mm | 4153 mm | 7424 ㎥ | 9170 t | 15 | 2026-07-24 11:58:46.000 | |||
| WJWJR01 | 1 | 9509 % | 4110 | 80 °C | 100 % | 9865 mm | 8447 mm | 1905 ㎥ | 5389 t | 15 | 2026-07-24 11:58:38.000 | |||
| WJWJR01 | 1 | 2671 % | 5206 | 80 °C | 100 % | 1367 mm | 7535 mm | 8184 ㎥ | 4136 t | 15 | 2026-07-24 11:58:32.000 | |||
| WJWJR01 | 1 | 2945 % | 8525 | 80 °C | 100 % | 2376 mm | 1969 mm | 7661 ㎥ | 8803 t | 15 | 2026-07-24 11:58:25.000 | |||
| WJWJR01 | 1 | 9700 % | 2936 | 80 °C | 100 % | 6465 mm | 9500 mm | 7790 ㎥ | 3716 t | 15 | 2026-07-24 11:58:17.000 | |||
| WJWJR01 | 1 | 9195 % | 5691 | 80 °C | 100 % | 6519 mm | 4451 mm | 2707 ㎥ | 2466 t | 15 | 2026-07-24 11:58:10.000 | |||
| WJWJR01 | 1 | 9658 % | 5141 | 80 °C | 100 % | 9583 mm | 4952 mm | 7122 ㎥ | 1716 t | 15 | 2026-07-24 11:58:03.000 | |||
| WJWJR01 | 1 | 2273 % | 9413 | 80 °C | 100 % | 8581 mm | 3173 mm | 8571 ㎥ | 1929 t | 15 | 2026-07-24 11:57:56.000 | |||
| WJWJR01 | 1 | 4074 % | 1582 | 80 °C | 100 % | 9693 mm | 1452 mm | 7147 ㎥ | 3358 t | 15 | 2026-07-24 11:57:49.000 | |||
| WJWJR01 | 1 | 5536 % | 3770 | 80 °C | 100 % | 1642 mm | 3713 mm | 8083 ㎥ | 3147 t | 15 | 2026-07-24 11:57:42.000 | |||
| WJWJR01 | 1 | 6329 % | 8743 | 80 °C | 100 % | 9239 mm | 3577 mm | 8045 ㎥ | 2467 t | 15 | 2026-07-24 11:57:36.000 | |||
| WJWJR01 | 1 | 1904 % | 7880 | 80 °C | 100 % | 6020 mm | 3652 mm | 5060 ㎥ | 9350 t | 15 | 2026-07-24 11:57:29.000 | |||
| WJWJR01 | 1 | 3070 % | 9221 | 80 °C | 100 % | 6833 mm | 6266 mm | 1039 ㎥ | 8379 t | 15 | 2026-07-24 11:57:20.000 | |||
| WJWJR01 | 1 | 8347 % | 5562 | 80 °C | 100 % | 8146 mm | 9094 mm | 6195 ㎥ | 2027 t | 15 | 2026-07-24 11:57:13.000 | |||
| WJWJR01 | 1 | 4015 % | 2751 | 80 °C | 100 % | 6045 mm | 8904 mm | 1083 ㎥ | 5019 t | 15 | 2026-07-24 11:57:07.000 | |||
| WJWJR01 | 1 | 4953 % | 4638 | 80 °C | 100 % | 9245 mm | 8214 mm | 1740 ㎥ | 4966 t | 15 | 2026-07-24 11:56:59.000 | |||
| WJWJR01 | 1 | 5003 % | 2314 | 80 °C | 100 % | 7576 mm | 8680 mm | 7480 ㎥ | 1179 t | 15 | 2026-07-24 11:56:53.000 | |||
| WJWJR01 | 1 | 9457 % | 7513 | 80 °C | 100 % | 1560 mm | 3232 mm | 1904 ㎥ | 4991 t | 15 | 2026-07-24 11:56:46.000 |
[첫 페이지] [10] [11] [12] [13] 14 [15] [16] [17] [18] [마지막 페이지]